Weather History for North Bend, OR

Change the Weather History Date:

Tuesday, December 6, 2011

  Actual Average Record
Temperature  
Mean Temperature 38 °F 46 °F  
Max Temperature 48 °F 51 °F 69 °F (1934)
Min Temperature 27 °F 40 °F 25 °F (2009)
Degree Days  
Heating Degree Days 27 19  
Month to date heating degree days 145 114  
Since 1 July heating degree days 1496 1566  
Cooling Degree Days 0 0  
Month to date cooling degree days 0 0  
Year to date cooling degree days 1 2  
Moisture  
Dew Point 27 °F    
Average Humidity 69    
Maximum Humidity 78    
Minimum Humidity 57    
Precipitation  
Precipitation 0.00 in 0.36 in 4.04 in (1987)
Month to date precipitation 0.00 2.28  
Year to date precipitation 36.41 56.06  
Sea Level Pressure  
Sea Level Pressure 30.43 in    
Wind  
Wind Speed 3 mph (SE)    
Max Wind Speed 7 mph    
Max Gust Speed -    
Visibility 10 miles    
Events      
T = Trace of Precipitation, MM = Missing Value Source: NWS Daily Summary

Daily Weather History Graph

Daily Weather History Graph

Search for Another Location

Airport:

Trip Planner

Search our weather history database for the weather conditions in past years. The results will help you decide how hot, cold, wet, or windy it might be!

Date:

Astronomy

Dec. 06, 2011 Rise Set
Actual Time 7:34 AM PST 4:40 PM PST
Civil Twilight 7:02 AM PST 5:13 PM PST
Nautical Twilight 6:26 AM PST 5:49 PM PST
Astronomical Twilight 5:52 AM PST 6:23 PM PST
Moon 2:14 PM PST (12/6) 3:55 AM PST (12/6)
Length of Visible Light 10h 10m
Length of Day
9h 06m
Waxing Gibbous, 87% of the Moon is Illuminated
Dec 6
Waxing Gibbous
Dec 10
Full
Dec 17
Last Quarter
Dec 24
New
Dec 31
First Quarter

Hourly Weather History & Observations

Time (PST) Temp. Windchill Dew Point Humidity Pressure Visibility Wind Dir Wind Speed Gust Speed Precip Events Conditions
12:15 AM 33.8 °F - 26.6 °F 75% 30.38 in 9.0 mi Calm Calm - N/A   Clear
12:35 AM 33.8 °F - 26.6 °F 75% 30.38 in 10.0 mi Calm Calm - N/A   Clear
12:55 AM 30.2 °F - 24.8 °F 80% 30.37 in 10.0 mi Calm Calm - N/A   Clear
1:15 AM 30.2 °F - 23.0 °F 75% 30.38 in 6.0 mi Calm Calm - N/A   Clear
1:35 AM 30.2 °F - 23.0 °F 75% 30.38 in 7.0 mi Calm Calm - N/A   Clear
1:55 AM 32.0 °F - 24.8 °F 75% 30.38 in 10.0 mi Calm Calm - N/A   Clear
2:15 AM 30.2 °F 26.7 °F 24.8 °F 80% 30.38 in 10.0 mi SSE 3.5 mph - N/A   Clear
2:35 AM 28.4 °F 24.6 °F 21.2 °F 74% 30.39 in 6.0 mi South 3.5 mph - N/A   Clear
2:55 AM 30.2 °F 26.7 °F 24.8 °F 80% 30.39 in 10.0 mi SSE 3.5 mph - N/A   Clear
3:15 AM 30.2 °F 25.4 °F 23.0 °F 75% 30.39 in 10.0 mi SSE 4.6 mph - N/A   Clear
3:35 AM 30.2 °F 26.7 °F 24.8 °F 80% 30.39 in 7.0 mi SE 3.5 mph - N/A   Clear
3:55 AM 28.4 °F 24.6 °F 21.2 °F 74% 30.38 in 9.0 mi SSE 3.5 mph - N/A   Clear
4:15 AM 28.4 °F 22.2 °F 21.2 °F 74% 30.39 in 7.0 mi SSE 5.8 mph - N/A   Clear
4:35 AM 28.4 °F 24.6 °F 21.2 °F 74% 30.39 in 10.0 mi South 3.5 mph - N/A   Clear
4:55 AM 28.4 °F 21.2 °F 19.4 °F 69% 30.40 in 10.0 mi SSE 6.9 mph - N/A   Clear
5:15 AM 28.4 °F 21.2 °F 21.2 °F 74% 30.40 in 10.0 mi SSE 6.9 mph - N/A   Clear
5:35 AM 28.4 °F 24.6 °F 21.2 °F 74% 30.40 in 10.0 mi ESE 3.5 mph - N/A   Clear
5:55 AM 30.2 °F 23.4 °F 23.0 °F 75% 30.41 in 10.0 mi ESE 6.9 mph - N/A   Clear
6:15 AM 30.2 °F 22.6 °F 23.0 °F 75% 30.41 in 10.0 mi SE 8.1 mph - N/A   Clear
6:35 AM 28.4 °F 20.4 °F 21.2 °F 74% 30.40 in 10.0 mi SSE 8.1 mph - N/A   Clear
6:55 AM 28.4 °F 21.2 °F 21.2 °F 74% 30.41 in 10.0 mi SSE 6.9 mph - N/A   Clear
7:15 AM 28.4 °F 22.2 °F 21.2 °F 74% 30.42 in 10.0 mi SSE 5.8 mph - N/A   Clear
7:35 AM 28.4 °F 24.6 °F 21.2 °F 74% 30.43 in 10.0 mi SSE 3.5 mph - N/A   Clear
7:55 AM 30.2 °F 26.7 °F 23.0 °F 75% 30.44 in 10.0 mi SE 3.5 mph - N/A   Clear
8:15 AM 32.0 °F 26.4 °F 24.8 °F 75% 30.44 in 10.0 mi SE 5.8 mph - N/A   Clear
8:35 AM 32.0 °F 26.4 °F 24.8 °F 75% 30.44 in 10.0 mi SSE 5.8 mph - N/A   Clear
8:55 AM 33.8 °F 30.8 °F 26.6 °F 75% 30.45 in 10.0 mi SE 3.5 mph - N/A   Clear
9:15 AM 35.6 °F 30.7 °F 26.6 °F 70% 30.46 in 10.0 mi SE 5.8 mph - N/A   Clear
9:35 AM 37.4 °F 33.8 °F 28.4 °F 70% 30.46 in 10.0 mi SE 4.6 mph - N/A   Clear
9:55 AM 37.4 °F - 28.4 °F 70% 30.48 in 10.0 mi Calm Calm - N/A   Clear
10:15 AM 39.2 °F 37.0 °F 30.2 °F 70% 30.48 in 10.0 mi SE 3.5 mph - N/A   Clear
10:35 AM 41.0 °F 37.1 °F 30.2 °F 65% 30.47 in 10.0 mi East 5.8 mph - N/A   Clear
10:55 AM 42.8 °F 40.1 °F 30.2 °F 61% 30.47 in 10.0 mi ESE 4.6 mph - N/A   Clear
11:15 AM 42.8 °F - 30.2 °F 61% 30.47 in 10.0 mi Calm Calm - N/A   Clear
11:35 AM 44.6 °F - 30.2 °F 57% 30.47 in 10.0 mi Calm Calm - N/A   Clear
11:55 AM 42.8 °F - 28.4 °F 57% 30.46 in 10.0 mi Calm Calm - N/A   Clear
12:15 PM 46.4 °F - 30.2 °F 53% 30.46 in 10.0 mi Calm Calm - N/A   Clear
12:35 PM 46.4 °F - 30.2 °F 53% 30.45 in 10.0 mi Calm Calm - N/A   Clear
12:55 PM 46.4 °F - 32.0 °F 57% 30.44 in 10.0 mi Calm Calm - N/A   Clear
1:15 PM 46.4 °F - 30.2 °F 53% 30.44 in 10.0 mi Calm Calm - N/A   Clear
1:35 PM 46.4 °F 44.3 °F 32.0 °F 57% 30.43 in 10.0 mi WNW 4.6 mph - N/A   Clear
1:55 PM 46.4 °F - 32.0 °F 57% 30.43 in 10.0 mi Calm Calm - N/A   Clear
2:15 PM 46.4 °F - 32.0 °F 57% 30.43 in 10.0 mi Calm Calm - N/A   Clear
2:35 PM 46.4 °F 44.3 °F 32.0 °F 57% 30.43 in 10.0 mi West 4.6 mph - N/A   Clear
2:55 PM 46.4 °F 43.5 °F 33.8 °F 62% 30.44 in 10.0 mi WNW 5.8 mph - N/A   Clear
3:15 PM 46.4 °F 42.9 °F 32.0 °F 57% 30.44 in 10.0 mi NNW 6.9 mph - N/A   Clear
3:35 PM 46.4 °F 43.5 °F 33.8 °F 62% 30.44 in 10.0 mi North 5.8 mph - N/A   Clear
3:55 PM 46.4 °F 43.5 °F 33.8 °F 62% 30.44 in 10.0 mi North 5.8 mph - N/A   Clear
4:15 PM 46.4 °F 43.5 °F 33.8 °F 62% 30.44 in 10.0 mi NNW 5.8 mph - N/A   Clear
4:35 PM 44.6 °F 42.2 °F 33.8 °F 66% 30.44 in 10.0 mi North 4.6 mph - N/A   Clear
4:55 PM 44.6 °F 43.1 °F 33.8 °F 66% 30.44 in 10.0 mi North 3.5 mph - N/A   Clear
5:15 PM 41.0 °F - 30.2 °F 65% 30.44 in 10.0 mi Calm Calm - N/A   Clear
5:35 PM 39.2 °F - 30.2 °F 70% 30.45 in 10.0 mi Calm Calm - N/A   Clear
5:55 PM 39.2 °F - 32.0 °F 75% 30.45 in 10.0 mi Calm Calm - N/A   Clear
6:15 PM 39.2 °F 37.0 °F 30.2 °F 70% 30.45 in 10.0 mi SSE 3.5 mph - N/A   Clear
6:35 PM 37.4 °F 32.8 °F 28.4 °F 70% 30.45 in 10.0 mi SE 5.8 mph - N/A   Clear
6:55 PM 37.4 °F 32.8 °F 30.2 °F 75% 30.45 in 10.0 mi SSE 5.8 mph - N/A   Clear
7:15 PM 35.6 °F 32.8 °F 28.4 °F 75% 30.45 in 10.0 mi SE 3.5 mph - N/A   Clear
7:35 PM 35.6 °F 32.8 °F 28.4 °F 75% 30.44 in 10.0 mi SSE 3.5 mph - N/A   Clear
7:55 PM 35.6 °F 31.7 °F 26.6 °F 70% 30.45 in 10.0 mi SSE 4.6 mph - N/A   Clear
8:15 PM 35.6 °F 31.7 °F 28.4 °F 75% 30.45 in 10.0 mi SE 4.6 mph - N/A   Clear
8:35 PM 33.8 °F 29.6 °F 26.6 °F 75% 30.46 in 8.0 mi SE 4.6 mph - N/A   Clear
8:55 PM 33.8 °F 28.6 °F 26.6 °F 75% 30.44 in 7.0 mi SSE 5.8 mph - N/A   Clear
9:15 PM 33.8 °F 29.6 °F 26.6 °F 75% 30.45 in 7.0 mi SE 4.6 mph - N/A   Clear
9:35 PM 35.6 °F 31.7 °F 28.4 °F 75% 30.45 in 9.0 mi SE 4.6 mph - N/A   Clear
9:55 PM 33.8 °F 29.6 °F 26.6 °F 75% 30.45 in 8.0 mi SE 4.6 mph - N/A   Clear
10:15 PM 33.8 °F 29.6 °F 26.6 °F 75% 30.45 in 6.0 mi SE 4.6 mph - N/A   Clear
10:35 PM 32.0 °F 27.5 °F 24.8 °F 75% 30.45 in 6.0 mi SSE 4.6 mph - N/A   Clear
10:55 PM 32.0 °F 27.5 °F 24.8 °F 75% 30.44 in 5.0 mi SE 4.6 mph - N/A   Clear
11:15 PM 32.0 °F 26.4 °F 24.8 °F 75% 30.44 in 7.0 mi SSE 5.8 mph - N/A   Clear
11:35 PM 32.0 °F 28.7 °F 24.8 °F 75% 30.44 in 5.0 mi SSE 3.5 mph - N/A   Clear
11:55 PM 33.8 °F 29.6 °F 26.6 °F 75% 30.43 in 7.0 mi SE 4.6 mph - N/A   Clear